TIANLIAN 1-05

Last updated on Wed Sep 17 2025 00:02:50 GMT+0000 (Coordinated Universal Time)

1 49011U 21063A 25259.02544531 .00000090 00000+0 00000+0 0 9991 2 49011 0.8823 82.3275 0004282 136.7948 162.0820 1.00272709 15327
UTC large
Height (km)
Speed (km/s)
/
Latitude / Longitude
Inclination (degrees)
Orbital Period (minutes)
Azimuth
Elevation
Range (km)
Doppler Factor

Next 0 passes for location: London (51.5072 / 0.1276)

Sorry there are no passes over London.